Silver Bay, MN

2:28 AM CDT on October 22, 2017 (GMT -0500)
Silver Bay Municipal

Weather History for KBFW - September, 2013

Change the Weather History Date:

Saturday, September 14, 2013

  Actual Average Record
Temperature  
Mean Temperature 50 °F -  
Max Temperature 68 °F 64 °F 84 °F (1997)
Min Temperature 33 °F 42 °F 28 °F (2001)
Degree Days  
Heating Degree Days 14    
Moisture  
Dew Point 43 °F    
Average Humidity 73    
Maximum Humidity 93    
Minimum Humidity 49    
Precipitation  
Precipitation 0.05 in - - ()
Sea Level Pressure  
Sea Level Pressure 29.94 in    
Wind  
Wind Speed 3 mph (SSW)    
Max Wind Speed 13 mph    
Max Gust Speed 18 mph    
Visibility 10 miles    
Events Rain    
Averages and records for this station are not official NWS values.
T = Trace of Precipitation, MM = Missing Value Source: NWS Daily Summary

Daily Weather History Graph

Daily Weather History Graph

Search for Another Location

Airport or City:

Trip Planner

Search our weather history database for the weather conditions in past years. The results will help you decide how hot, cold, wet, or windy it might be!

Date:

Astronomy

Sep. 14, 2013 Rise Set
Actual Time 6:42 AM CDT 7:19 PM CDT
Civil Twilight 6:11 AM CDT 7:49 PM CDT
Nautical Twilight 5:34 AM CDT 8:26 PM CDT
Astronomical Twilight 4:56 AM CDT 9:04 PM CDT
Moon 4:15 PM CDT (9/14) 12:57 AM CDT (9/14)
Length of Visible Light 13h 38m
Length of Day
12h 36m
Waxing Gibbous, 72% of the Moon is Illuminated
Sep 14
Waxing Gibbous
Sep 19
Full
Sep 26
Last Quarter
Oct 4
New
Oct 11
First Quarter

Hourly Weather History & Observations

Time (CDT) Temp. Windchill Dew Point Humidity Pressure Visibility Wind Dir Wind Speed Gust Speed Precip Events Conditions
12:13 AM 37.4 °F - 35.6 °F 93% 30.04 in 10.0 mi Calm Calm - N/A   Clear
12:33 AM 37.4 °F - 35.6 °F 93% 30.05 in 10.0 mi Calm Calm - N/A   Clear
12:53 AM 35.6 °F - 33.8 °F 93% 30.05 in 10.0 mi Calm Calm - N/A   Clear
1:13 AM 37.4 °F - 33.8 °F 87% 30.05 in 10.0 mi Calm Calm - N/A   Clear
1:33 AM 35.6 °F - 32.0 °F 87% 30.04 in 10.0 mi Calm Calm - N/A   Clear
1:53 AM 35.6 °F - 33.8 °F 93% 30.03 in 10.0 mi Calm Calm - N/A   Clear
2:13 AM 35.6 °F - 33.8 °F 93% 30.02 in 10.0 mi Calm Calm - N/A   Clear
2:33 AM 35.6 °F - 33.8 °F 93% 30.02 in 10.0 mi Calm Calm - N/A   Clear
2:53 AM 35.6 °F - 30.2 °F 81% 30.01 in 10.0 mi Calm Calm - N/A   Clear
3:13 AM 33.8 °F - 32.0 °F 93% 30.01 in 10.0 mi Calm Calm - N/A   Clear
3:33 AM 33.8 °F - 30.2 °F 87% 30.01 in 10.0 mi Calm Calm - N/A   Clear
3:53 AM 35.6 °F - 33.8 °F 93% 30.00 in 10.0 mi Calm Calm - N/A   Clear
4:13 AM 33.8 °F - 30.2 °F 87% 30.00 in 10.0 mi Calm Calm - N/A   Clear
4:33 AM 33.8 °F - 30.2 °F 87% 30.00 in 10.0 mi Calm Calm - N/A   Clear
4:53 AM 37.4 °F - 35.6 °F 93% 29.99 in 10.0 mi Calm Calm - N/A   Clear
5:13 AM 39.2 °F - 35.6 °F 87% 29.99 in 10.0 mi Calm Calm - N/A   Clear
5:33 AM 39.2 °F - 35.6 °F 87% 29.99 in 10.0 mi Calm Calm - N/A   Clear
5:53 AM 37.4 °F - 33.8 °F 87% 29.99 in 10.0 mi Calm Calm - N/A   Clear
6:13 AM 37.4 °F - 32.0 °F 81% 29.99 in 10.0 mi Calm Calm - N/A   Clear
6:33 AM 37.4 °F - 33.8 °F 87% 29.99 in 10.0 mi Calm Calm - N/A   Clear
6:53 AM 37.4 °F - 33.8 °F 87% 29.99 in 10.0 mi Calm Calm - N/A   Clear
7:13 AM 37.4 °F - 35.6 °F 93% 29.99 in 10.0 mi Calm Calm - N/A   Clear
7:33 AM 39.2 °F - 35.6 °F 87% 29.99 in 10.0 mi Calm Calm - N/A   Clear
7:53 AM 46.4 °F 45.2 °F 42.8 °F 87% 29.98 in 10.0 mi SSW 3.5 mph - N/A   Clear
8:13 AM 48.2 °F - 42.8 °F 82% 29.98 in 10.0 mi Calm Calm - N/A   Clear
8:33 AM 50.0 °F - 42.8 °F 76% 29.97 in 10.0 mi South 5.8 mph - N/A   Clear
8:53 AM 51.8 °F - 42.8 °F 71% 29.97 in 10.0 mi South 4.6 mph - N/A   Clear
9:13 AM 53.6 °F - 44.6 °F 72% 29.96 in 10.0 mi SSW 3.5 mph - N/A   Clear
9:33 AM 55.4 °F - 44.6 °F 67% 29.96 in 10.0 mi South 6.9 mph - N/A   Clear
9:53 AM 57.2 °F - 44.6 °F 63% 29.95 in 10.0 mi South 8.1 mph - N/A   Clear
10:13 AM 60.8 °F - 44.6 °F 55% 29.94 in 10.0 mi South 6.9 mph - N/A   Clear
10:33 AM 60.8 °F - 44.6 °F 55% 29.93 in 10.0 mi South 8.1 mph - N/A   Clear
10:53 AM 62.6 °F - 46.4 °F 55% 29.93 in 10.0 mi South 8.1 mph - N/A   Clear
11:13 AM 62.6 °F - 46.4 °F 55% 29.92 in 10.0 mi South 9.2 mph - N/A   Clear
11:33 AM 64.4 °F - 48.2 °F 56% 29.91 in 10.0 mi South 10.4 mph - N/A   Clear
11:53 AM 64.4 °F - 48.2 °F 56% 29.90 in 10.0 mi South 8.1 mph - N/A   Clear
12:13 PM 62.6 °F - 48.2 °F 59% 29.90 in 10.0 mi South 10.4 mph - N/A   Clear
12:33 PM 64.4 °F - 46.4 °F 52% 29.89 in 10.0 mi South 8.1 mph - N/A   Clear
12:53 PM 64.4 °F - 46.4 °F 52% 29.89 in 10.0 mi SSW 8.1 mph - N/A   Clear
1:13 PM 62.6 °F - 46.4 °F 55% 29.89 in 10.0 mi South 10.4 mph - N/A   Clear
1:33 PM 62.6 °F - 48.2 °F 59% 29.88 in 10.0 mi South 8.1 mph - N/A   Clear
1:53 PM 64.4 °F - 48.2 °F 56% 29.88 in 10.0 mi SSW 8.1 mph - N/A   Clear
2:13 PM 66.2 °F - 48.2 °F 52% 29.87 in 10.0 mi South 10.4 mph - N/A   Clear
2:33 PM 68.0 °F - 48.2 °F 49% 29.87 in 10.0 mi South 11.5 mph - N/A   Clear
2:53 PM 66.2 °F - 48.2 °F 52% 29.87 in 10.0 mi South 10.4 mph - N/A   Clear
3:13 PM 66.2 °F - 48.2 °F 52% 29.86 in 10.0 mi South 12.7 mph - N/A   Clear
3:33 PM 66.2 °F - 48.2 °F 52% 29.86 in 10.0 mi South 11.5 mph - N/A   Clear
3:53 PM 66.2 °F - 50.0 °F 56% 29.86 in 10.0 mi SSW 8.1 mph - N/A   Clear
4:13 PM 64.4 °F - 48.2 °F 56% 29.87 in 10.0 mi SSW 6.9 mph - N/A   Clear
4:33 PM 64.4 °F - 48.2 °F 56% 29.88 in 10.0 mi SSW 6.9 mph - N/A   Clear
4:53 PM 64.4 °F - 48.2 °F 56% 29.88 in 10.0 mi SW 4.6 mph - N/A   Scattered Clouds
5:13 PM 62.6 °F - 50.0 °F 63% 29.88 in 10.0 mi Calm Calm - N/A   Mostly Cloudy
5:33 PM 62.6 °F - 50.0 °F 63% 29.88 in 10.0 mi Calm Calm - N/A   Mostly Cloudy
5:53 PM 62.6 °F - 50.0 °F 63% 29.88 in 10.0 mi SW 4.6 mph - N/A   Scattered Clouds
6:13 PM 62.6 °F - 48.2 °F 59% 29.89 in 10.0 mi Calm Calm - N/A   Mostly Cloudy
6:33 PM 60.8 °F - 48.2 °F 63% 29.89 in 10.0 mi SW 3.5 mph - N/A   Scattered Clouds
6:53 PM 60.8 °F - 48.2 °F 63% 29.89 in 10.0 mi SSW 3.5 mph - N/A   Scattered Clouds
7:13 PM 60.8 °F - 50.0 °F 68% 29.89 in 10.0 mi Calm Calm - N/A   Mostly Cloudy
7:33 PM 60.8 °F - 50.0 °F 68% 29.89 in 10.0 mi SW 3.5 mph - N/A Rain Light Rain
7:53 PM 59.0 °F - 51.8 °F 77% 29.90 in 10.0 mi SW 3.5 mph - N/A Rain Light Rain
8:13 PM 57.2 °F - 51.8 °F 82% 29.91 in 10.0 mi WSW 4.6 mph - 0.02 in Rain Rain
8:33 PM 55.4 °F - 51.8 °F 88% 29.92 in 10.0 mi SW 8.1 mph 18.4 mph 0.03 in Rain Rain
8:53 PM 55.4 °F - 50.0 °F 82% 29.92 in 10.0 mi SW 5.8 mph - N/A   Drizzle
9:13 PM 53.6 °F - 48.2 °F 82% 29.92 in 10.0 mi SW 4.6 mph - 0.01 in   Drizzle
9:33 PM 53.6 °F - 48.2 °F 82% 29.92 in 10.0 mi SW 3.5 mph - 0.01 in   Light Drizzle
9:53 PM 53.6 °F - 48.2 °F 82% 29.92 in 10.0 mi WSW 3.5 mph - N/A   Light Drizzle
10:13 PM 53.6 °F - 48.2 °F 82% 29.92 in 10.0 mi SW 4.6 mph - N/A   Light Drizzle
10:33 PM 53.6 °F - 48.2 °F 82% 29.93 in 10.0 mi WSW 4.6 mph - N/A   Overcast
10:53 PM 53.6 °F - 48.2 °F 82% 29.93 in 10.0 mi WSW 3.5 mph - N/A   Overcast
11:13 PM 53.6 °F - 48.2 °F 82% 29.93 in 10.0 mi WSW 3.5 mph - 0.01 in Rain Rain
11:33 PM 53.6 °F - 48.2 °F 82% 29.93 in 10.0 mi Calm Calm - 0.01 in   Overcast
11:53 PM 53.6 °F - 48.2 °F 82% 29.93 in 10.0 mi Calm Calm - N/A Rain Light Rain